Station History

Weather Underground - logo

Station Historical Data
Daily Summary for August 6, 2017 Units:  English    Metric   Both
« Previous Day
Next Day »
Daily Weekly Monthly Yearly Custom
  High: Low: Average:
Temperature: TemperatureF °F 66.8 °F 83.5 °F
Dew Point: DewpointF °F 56.8 °F 62 °F
Humidity: Humidity % 28 % 52 %
Wind Speed: WindSpeedMPH mph 0.0 mph 1.4 mph
Wind Gust: WindSpeedGustMPH mph - -
Wind:- - WSW
Pressure: PressureIn in 29.73 in -
Precipitation: 0.00 in    
Historical Graphs
 
 
Tabular Data for August 6, 2017
Time Temperature Dew Point Pressure Wind Wind Speed Wind Gust Humidity Rainfall Rate (Hourly)
TemperatureF °F DewpointF °F PressureIn in Calm     Humidity % HourlyPrecipIn in
00:00 78.8 °F 59.7 °F 29.79 in Calm     52 % 0.00 in
00:05 78.5 °F 59.4 °F 29.79 in Calm     52 % 0.00 in
00:10 78.6 °F 59.5 °F 29.79 in Calm     52 % 0.00 in
00:15 78.9 °F 59.2 °F 29.79 in Calm     51 % 0.00 in
00:20 79.2 °F 59.5 °F 29.79 in Calm   0.1 mph 51 % 0.00 in
00:25 79.4 °F 60.2 °F 29.80 in NW 1.2 mph 1.2 mph 52 % 0.00 in
00:30 79.3 °F 60.7 °F 29.80 in Calm     53 % 0.00 in
00:35 79.1 °F 60.5 °F 29.79 in Calm     53 % 0.00 in
00:40 78.6 °F 60.6 °F 29.79 in Calm     54 % 0.00 in
00:45 78.2 °F 60.7 °F 29.79 in North 1.0 mph 1.0 mph 55 % 0.00 in
00:50 78.1 °F 61.1 °F 29.79 in NNW 1.2 mph   56 % 0.00 in
00:55 78.1 °F 61.1 °F 29.79 in NNW 1.2 mph 1.2 mph 56 % 0.00 in
01:00 77.9 °F 61.4 °F 29.79 in Calm     57 % 0.00 in
01:05 77.5 °F 62.0 °F 29.79 in Calm     59 % 0.00 in
01:10 77.3 °F 61.9 °F 29.79 in Calm     59 % 0.00 in
01:20 76.7 °F 62.7 °F 29.79 in Calm     62 % 0.00 in
01:25 76.3 °F 62.3 °F 29.79 in Calm     62 % 0.00 in
01:30 76.0 °F 62.5 °F 29.78 in Calm     63 % 0.00 in
01:36 75.6 °F 63.0 °F 29.78 in Calm     65 % 0.00 in
01:41 75.3 °F 63.2 °F 29.78 in Calm     66 % 0.00 in
01:46 74.8 °F 63.1 °F 29.78 in Calm     67 % 0.00 in
01:47 74.7 °F 63.9 °F 29.78 in Calm     69 % 0.00 in
01:52 74.3 °F 63.1 °F 29.79 in Calm     68 % 0.00 in
01:57 74.1 °F 63.3 °F 29.78 in Calm     69 % 0.00 in
02:03 74.1 °F 64.1 °F 29.78 in Calm     71 % 0.00 in
02:08 74.0 °F 63.6 °F 29.78 in Calm     70 % 0.00 in
02:13 73.8 °F 63.4 °F 29.78 in Calm     70 % 0.00 in
02:18 73.7 °F 63.3 °F 29.78 in Calm     70 % 0.00 in
02:23 73.7 °F 63.3 °F 29.78 in Calm     70 % 0.00 in
02:28 73.6 °F 63.6 °F 29.78 in Calm     71 % 0.00 in
02:33 73.4 °F 63.4 °F 29.78 in Calm     71 % 0.00 in
02:38 73.2 °F 64.0 °F 29.78 in Calm     73 % 0.00 in
02:43 73.1 °F 64.3 °F 29.78 in Calm     74 % 0.00 in
02:48 73.1 °F 64.3 °F 29.79 in Calm     74 % 0.00 in
02:53 72.7 °F 63.5 °F 29.79 in Calm     73 % 0.00 in
02:58 72.4 °F 63.3 °F 29.79 in Calm     73 % 0.00 in
03:03 72.0 °F 63.3 °F 29.79 in Calm     74 % 0.00 in
03:08 71.4 °F 63.1 °F 29.79 in Calm     75 % 0.00 in
03:13 71.1 °F 63.1 °F 29.79 in Calm     76 % 0.00 in
03:18 71.0 °F 63.4 °F 29.79 in Calm     77 % 0.00 in
03:23 70.8 °F 64.0 °F 29.79 in Calm     79 % 0.00 in
03:28 70.6 °F 63.8 °F 29.79 in Calm     79 % 0.00 in
03:33 70.2 °F 63.7 °F 29.79 in Calm     80 % 0.00 in
03:38 69.9 °F 63.8 °F 29.79 in Calm     81 % 0.00 in
03:43 69.6 °F 63.9 °F 29.79 in Calm     82 % 0.00 in
03:48 69.4 °F 64.0 °F 29.79 in Calm     83 % 0.00 in
03:53 69.2 °F 63.5 °F 29.79 in Calm     82 % 0.00 in
03:58 68.9 °F 63.2 °F 29.79 in Calm     82 % 0.00 in
04:03 68.8 °F 63.1 °F 29.79 in Calm     82 % 0.00 in
04:05 68.8 °F 63.1 °F 29.79 in Calm     82 % 0.00 in
04:09 68.8 °F 63.1 °F 29.79 in Calm     82 % 0.00 in
04:14 68.8 °F 63.1 °F 29.79 in Calm     82 % 0.00 in
04:17 68.7 °F 62.6 °F 29.79 in Calm     81 % 0.00 in
04:22 68.6 °F 62.5 °F 29.79 in Calm     81 % 0.00 in
04:27 68.4 °F 62.3 °F 29.80 in Calm     81 % 0.00 in
04:32 68.3 °F 62.2 °F 29.80 in Calm     81 % 0.00 in
04:37 68.4 °F 62.3 °F 29.80 in Calm     81 % 0.00 in
04:42 68.5 °F 62.4 °F 29.80 in Calm     81 % 0.00 in
04:47 68.4 °F 62.3 °F 29.80 in Calm     81 % 0.00 in
04:52 68.3 °F 62.2 °F 29.80 in Calm     81 % 0.00 in
04:57 68.1 °F 62.0 °F 29.80 in Calm     81 % 0.00 in
05:02 68.1 °F 62.0 °F 29.80 in Calm     81 % 0.00 in
05:07 68.0 °F 61.9 °F 29.80 in Calm     81 % 0.00 in
05:13 67.9 °F 61.9 °F 29.80 in Calm     81 % 0.00 in
05:18 67.7 °F 62.0 °F 29.80 in Calm     82 % 0.00 in
05:23 67.7 °F 62.0 °F 29.80 in Calm     82 % 0.00 in
05:28 67.6 °F 61.9 °F 29.80 in Calm     82 % 0.00 in
05:33 67.5 °F 62.2 °F 29.80 in Calm     83 % 0.00 in
05:38 67.3 °F 62.0 °F 29.80 in Calm     83 % 0.00 in
05:43 67.1 °F 61.8 °F 29.80 in Calm     83 % 0.00 in
05:48 67.1 °F 61.8 °F 29.80 in Calm     83 % 0.00 in
05:53 67.1 °F 61.8 °F 29.81 in Calm     83 % 0.00 in
05:58 67.1 °F 61.8 °F 29.81 in Calm     83 % 0.00 in
06:03 66.9 °F 61.6 °F 29.81 in Calm     83 % 0.00 in
06:08 66.9 °F 61.9 °F 29.81 in Calm     84 % 0.00 in
06:13 67.0 °F 62.0 °F 29.81 in Calm     84 % 0.00 in
06:18 66.9 °F 61.9 °F 29.82 in Calm     84 % 0.00 in
06:23 66.9 °F 62.2 °F 29.82 in Calm     85 % 0.00 in
06:28 66.8 °F 62.1 °F 29.82 in Calm     85 % 0.00 in
06:33 66.9 °F 62.6 °F 29.82 in Calm     86 % 0.00 in
06:38 66.9 °F 62.6 °F 29.82 in Calm     86 % 0.00 in
06:43 67.1 °F 62.8 °F 29.83 in Calm     86 % 0.00 in
06:48 67.3 °F 62.6 °F 29.83 in Calm     85 % 0.00 in
06:53 67.6 °F 62.6 °F 29.83 in Calm     84 % 0.00 in
07:03 67.7 °F 62.7 °F 29.83 in NW 1.2 mph   84 % 0.00 in
07:08 67.9 °F 62.9 °F 29.83 in Calm     84 % 0.00 in
07:13 68.1 °F 62.7 °F 29.83 in Calm     83 % 0.00 in
07:18 68.6 °F 63.2 °F 29.83 in NW 1.2 mph   83 % 0.00 in
07:23 69.7 °F 63.6 °F 29.83 in SE 1.2 mph   81 % 0.00 in
07:33 72.1 °F 63.7 °F 29.83 in SSE 1.2 mph   75 % 0.00 in
07:38 73.3 °F 64.5 °F 29.83 in SSE 1.2 mph   74 % 0.00 in
07:43 74.1 °F 64.5 °F 29.83 in Calm     72 % 0.00 in
07:48 74.8 °F 64.8 °F 29.83 in SSE 2.3 mph 2.3 mph 71 % 0.00 in
07:53 75.6 °F 65.1 °F 29.83 in SSE 1.2 mph 1.2 mph 70 % 0.00 in
07:58 76.1 °F 65.2 °F 29.84 in SSE 2.3 mph 2.3 mph 69 % 0.00 in
08:03 76.5 °F 64.7 °F 29.84 in SSE 3.5 mph 3.5 mph 67 % 0.00 in
08:08 76.8 °F 65.4 °F 29.84 in SSE 2.3 mph   68 % 0.00 in
08:13 77.7 °F 65.4 °F 29.84 in SE 2.3 mph 2.3 mph 66 % 0.00 in
08:18 78.2 °F 65.0 °F 29.84 in South 2.3 mph 2.3 mph 64 % 0.00 in
08:23 78.6 °F 65.4 °F 29.84 in ENE 2.3 mph 2.3 mph 64 % 0.00 in
08:28 78.6 °F 64.9 °F 29.84 in East 3.5 mph 3.5 mph 63 % 0.00 in
08:33 78.8 °F 64.7 °F 29.84 in East 3.5 mph 3.5 mph 62 % 0.00 in
08:38 79.2 °F 65.5 °F 29.84 in ESE 3.5 mph 3.5 mph 63 % 0.00 in
08:43 79.7 °F 65.5 °F 29.84 in SSE 3.5 mph 3.5 mph 62 % 0.00 in
08:48 80.4 °F 65.7 °F 29.84 in South 4.6 mph 4.6 mph 61 % 0.00 in
08:53 80.5 °F 65.3 °F 29.84 in SW 3.5 mph 3.5 mph 60 % 0.00 in
08:59 81.0 °F 65.3 °F 29.84 in South 2.3 mph 2.3 mph 59 % 0.00 in
09:04 81.5 °F 66.3 °F 29.84 in Calm   0.7 mph 60 % 0.00 in
09:09 82.1 °F 66.4 °F 29.84 in SE 1.2 mph 1.2 mph 59 % 0.00 in
09:14 82.2 °F 66.0 °F 29.84 in SE 1.2 mph 1.2 mph 58 % 0.00 in
09:19 82.5 °F 66.7 °F 29.84 in SE 2.3 mph 2.3 mph 59 % 0.00 in
09:24 83.0 °F 65.7 °F 29.84 in ESE 3.5 mph 3.5 mph 56 % 0.00 in
09:29 83.5 °F 66.2 °F 29.84 in SSE 2.3 mph 2.3 mph 56 % 0.00 in
09:34 83.7 °F 65.8 °F 29.84 in SSE 3.5 mph 3.5 mph 55 % 0.00 in
09:44 84.1 °F 65.1 °F 29.84 in ESE 3.5 mph 3.5 mph 53 % 0.00 in
09:49 84.4 °F 64.3 °F 29.84 in South 1.2 mph 1.2 mph 51 % 0.00 in
09:54 84.7 °F 64.6 °F 29.84 in South 3.5 mph 3.5 mph 51 % 0.00 in
09:59 84.7 °F 64.0 °F 29.84 in SSE 3.5 mph 3.5 mph 50 % 0.00 in
10:04 84.7 °F 63.4 °F 29.84 in South 3.5 mph 3.5 mph 49 % 0.00 in
10:09 84.7 °F 64.6 °F 29.84 in SE 2.3 mph 2.3 mph 51 % 0.00 in
10:14 85.2 °F 65.0 °F 29.84 in South 3.5 mph 3.5 mph 51 % 0.00 in
10:19 85.9 °F 64.5 °F 29.84 in SSE 3.5 mph 3.5 mph 49 % 0.00 in
10:24 86.2 °F 63.6 °F 29.84 in SSE 3.5 mph 3.5 mph 47 % 0.00 in
10:29 86.4 °F 63.8 °F 29.84 in East 3.5 mph 3.5 mph 47 % 0.00 in
10:34 86.3 °F 63.7 °F 29.84 in South 2.3 mph 2.3 mph 47 % 0.00 in
10:39 86.7 °F 64.7 °F 29.83 in SSE 1.2 mph   48 % 0.00 in
10:44 87.5 °F 63.5 °F 29.84 in SSE 1.2 mph 1.2 mph 45 % 0.00 in
10:49 87.8 °F 64.4 °F 29.83 in NW 1.2 mph 1.2 mph 46 % 0.00 in
10:54 87.9 °F 63.3 °F 29.83 in West 2.3 mph 2.3 mph 44 % 0.00 in
10:59 88.1 °F 62.8 °F 29.83 in SSE 2.3 mph 2.3 mph 43 % 0.00 in
11:04 88.4 °F 61.0 °F 29.83 in WNW 2.3 mph 2.3 mph 40 % 0.00 in
11:09 88.7 °F 60.6 °F 29.83 in NNE 2.3 mph 2.3 mph 39 % 0.00 in
11:14 88.8 °F 59.2 °F 29.83 in NW 2.3 mph   37 % 0.00 in
11:19 89.0 °F 60.8 °F 29.83 in South 2.3 mph 2.3 mph 39 % 0.00 in
11:24 89.5 °F 59.8 °F 29.83 in Calm     37 % 0.00 in
11:29 90.4 °F 59.0 °F 29.83 in Calm     35 % 0.00 in
11:34 91.1 °F 58.8 °F 29.83 in NNE 1.2 mph 1.2 mph 34 % 0.00 in
11:39 90.7 °F 60.1 °F 29.83 in South 2.3 mph 2.3 mph 36 % 0.00 in
11:44 91.0 °F 59.5 °F 29.83 in NW 1.2 mph 1.2 mph 35 % 0.00 in
11:49 91.1 °F 58.8 °F 29.83 in ENE 2.0 mph 2.0 mph 34 % 0.00 in
11:54 90.9 °F 60.3 °F 29.83 in SW 2.3 mph 2.3 mph 36 % 0.00 in
11:59 91.2 °F 58.9 °F 29.83 in West 2.3 mph 2.3 mph 34 % 0.00 in
12:04 91.2 °F 58.9 °F 29.83 in NNE 2.3 mph 2.3 mph 34 % 0.00 in
12:09 91.4 °F 59.1 °F 29.83 in NW 2.3 mph 2.3 mph 34 % 0.00 in
12:15 92.1 °F 60.5 °F 29.83 in SSE 2.3 mph 2.3 mph 35 % 0.00 in
12:20 92.6 °F 60.1 °F 29.82 in SE 2.3 mph 2.3 mph 34 % 0.00 in
12:25 93.2 °F 62.3 °F 29.82 in East 2.3 mph 2.3 mph 36 % 0.00 in
12:30 93.4 °F 62.5 °F 29.82 in NNE 1.2 mph 1.2 mph 36 % 0.00 in
12:35 93.3 °F 59.9 °F 29.82 in NNW 2.3 mph 2.3 mph 33 % 0.00 in
12:40 93.6 °F 62.6 °F 29.82 in Calm     36 % 0.00 in
12:45 93.7 °F 58.5 °F 29.81 in WNW 2.3 mph 2.3 mph 31 % 0.00 in
12:50 93.8 °F 59.5 °F 29.81 in NNW 2.3 mph 2.3 mph 32 % 0.00 in
12:55 93.6 °F 59.3 °F 29.81 in North 2.3 mph 2.3 mph 32 % 0.00 in
13:00 93.8 °F 61.2 °F 29.81 in Calm     34 % 0.00 in
13:05 94.6 °F 60.2 °F 29.81 in North 2.3 mph 2.3 mph 32 % 0.00 in
13:10 94.1 °F 61.4 °F 29.80 in East 1.2 mph 1.2 mph 34 % 0.00 in
13:15 94.4 °F 59.1 °F 29.81 in West 3.5 mph 3.5 mph 31 % 0.00 in
13:20 94.4 °F 60.0 °F 29.80 in NW 3.5 mph 3.5 mph 32 % 0.00 in
13:25 94.5 °F 59.2 °F 29.80 in WNW 1.2 mph 1.2 mph 31 % 0.00 in
13:30 94.5 °F 57.3 °F 29.80 in WNW 3.0 mph 3.0 mph 29 % 0.00 in
13:35 94.3 °F 59.0 °F 29.80 in North 2.3 mph 2.3 mph 31 % 0.00 in
13:40 94.5 °F 57.3 °F 29.80 in NW 3.5 mph 3.5 mph 29 % 0.00 in
13:45 94.6 °F 57.4 °F 29.80 in WNW 2.0 mph 2.0 mph 29 % 0.00 in
13:50 94.5 °F 57.3 °F 29.80 in NW 2.3 mph 2.3 mph 29 % 0.00 in
13:55 94.9 °F 58.6 °F 29.79 in NW 3.5 mph 3.5 mph 30 % 0.00 in
14:00 95.0 °F 56.8 °F 29.79 in WNW 3.5 mph 3.5 mph 28 % 0.00 in
14:05 94.9 °F 57.7 °F 29.79 in WSW 3.5 mph 3.5 mph 29 % 0.00 in
14:10 95.4 °F 58.1 °F 29.79 in NNW 3.5 mph 3.5 mph 29 % 0.00 in
14:15 95.4 °F 57.1 °F 29.79 in WNW 4.0 mph 4.0 mph 28 % 0.00 in
14:20 95.9 °F 59.5 °F 29.79 in WSW 2.0 mph 2.0 mph 30 % 0.00 in
14:25 96.7 °F 59.2 °F 29.78 in South 2.3 mph 2.3 mph 29 % 0.00 in
14:30 97.4 °F 58.8 °F 29.78 in WNW 3.5 mph 3.5 mph 28 % 0.00 in
14:35 97.6 °F 60.0 °F 29.78 in WNW 3.5 mph 3.5 mph 29 % 0.00 in
14:40 97.8 °F 61.1 °F 29.78 in South 3.5 mph 3.5 mph 30 % 0.00 in
14:45 98.0 °F 59.3 °F 29.78 in West 3.5 mph 3.5 mph 28 % 0.00 in
14:50 97.6 °F 60.0 °F 29.77 in NW 2.3 mph 2.3 mph 29 % 0.00 in
14:55 97.4 °F 60.8 °F 29.78 in NW 3.0 mph 3.0 mph 30 % 0.00 in
15:00 97.2 °F 61.5 °F 29.77 in North 3.5 mph 3.5 mph 31 % 0.00 in
15:06 97.8 °F 62.9 °F 29.77 in NW 1.0 mph 1.0 mph 32 % 0.00 in
15:11 97.4 °F 60.8 °F 29.77 in WNW 2.3 mph 2.3 mph 30 % 0.00 in
15:16 97.8 °F 62.0 °F 29.77 in NW 2.3 mph 2.3 mph 31 % 0.00 in
15:21 97.8 °F 61.1 °F 29.77 in WNW 5.8 mph 5.8 mph 30 % 0.00 in
15:26 97.9 °F 63.0 °F 29.76 in East 2.3 mph 2.3 mph 32 % 0.00 in
15:33 98.3 °F 61.5 °F 29.76 in WNW 3.5 mph 3.5 mph 30 % 0.00 in
15:38 98.0 °F 61.3 °F 29.76 in NW 3.5 mph 3.5 mph 30 % 0.00 in
15:43 97.5 °F 59.9 °F 29.76 in North 3.5 mph 3.5 mph 29 % 0.00 in
15:48 97.1 °F 60.5 °F 29.76 in WNW 2.3 mph 2.3 mph 30 % 0.00 in
15:53 97.5 °F 61.8 °F 29.76 in North 2.3 mph 2.3 mph 31 % 0.00 in
15:58 97.7 °F 62.9 °F 29.76 in NE 2.3 mph 2.3 mph 32 % 0.00 in
16:03 98.1 °F 60.4 °F 29.75 in WSW 3.5 mph 3.5 mph 29 % 0.00 in
16:08 98.7 °F 60.9 °F 29.75 in WSW 1.2 mph 1.2 mph 29 % 0.00 in
16:13 98.7 °F 61.9 °F 29.75 in NW 2.3 mph 2.3 mph 30 % 0.00 in
16:18 98.0 °F 62.2 °F 29.75 in NW 3.5 mph 3.5 mph 31 % 0.00 in
16:23 97.7 °F 61.0 °F 29.75 in NW 3.5 mph 3.5 mph 30 % 0.00 in
16:28 97.3 °F 61.6 °F 29.75 in WNW 5.8 mph 5.8 mph 31 % 0.00 in
16:33 97.0 °F 61.4 °F 29.75 in WNW 2.3 mph 2.3 mph 31 % 0.00 in
16:38 97.1 °F 61.4 °F 29.75 in NW 6.0 mph 6.0 mph 31 % 0.00 in
16:43 97.0 °F 60.4 °F 29.74 in NW 5.8 mph 5.8 mph 30 % 0.00 in
16:44 97.0 °F 60.4 °F 29.74 in NNW 3.5 mph 3.5 mph 30 % 0.00 in
16:49 96.7 °F 61.1 °F 29.74 in WNW 4.0 mph 4.0 mph 31 % 0.00 in
16:54 96.8 °F 61.2 °F 29.74 in WNW 2.3 mph 2.3 mph 31 % 0.00 in
17:04 96.8 °F 61.2 °F 29.74 in NW 3.5 mph 3.5 mph 31 % 0.00 in
17:09 96.9 °F 60.3 °F 29.74 in NW 3.5 mph 3.5 mph 30 % 0.00 in
17:14 96.7 °F 60.2 °F 29.74 in NNW 4.6 mph 4.6 mph 30 % 0.00 in
17:19 96.7 °F 60.2 °F 29.74 in WNW 3.5 mph 3.5 mph 30 % 0.00 in
17:24 96.6 °F 61.0 °F 29.74 in North 3.5 mph 3.5 mph 31 % 0.00 in
17:29 96.5 °F 60.0 °F 29.74 in NW 3.5 mph 3.5 mph 30 % 0.00 in
17:34 96.5 °F 60.9 °F 29.74 in NW 3.5 mph 3.5 mph 31 % 0.00 in
17:39 96.4 °F 59.0 °F 29.74 in NW 3.5 mph 3.5 mph 29 % 0.00 in
17:44 96.0 °F 60.5 °F 29.74 in NW 3.5 mph 3.5 mph 31 % 0.00 in
17:49 96.3 °F 60.7 °F 29.74 in NW 3.0 mph 3.0 mph 31 % 0.00 in
17:54 96.2 °F 60.7 °F 29.73 in NW 3.5 mph 3.5 mph 31 % 0.00 in
17:59 96.2 °F 61.6 °F 29.74 in NNW 3.5 mph 3.5 mph 32 % 0.00 in
18:04 96.1 °F 59.7 °F 29.74 in NW 3.0 mph 3.0 mph 30 % 0.00 in
18:09 96.2 °F 58.8 °F 29.73 in NW 2.3 mph 2.3 mph 29 % 0.00 in
18:14 96.1 °F 58.7 °F 29.73 in NW 3.5 mph 3.5 mph 29 % 0.00 in
18:19 96.1 °F 59.7 °F 29.73 in North 2.3 mph 2.3 mph 30 % 0.00 in
18:24 96.1 °F 59.7 °F 29.73 in NW 2.3 mph 2.3 mph 30 % 0.00 in
18:29 96.1 °F 59.7 °F 29.73 in NW 1.2 mph 1.2 mph 30 % 0.00 in
18:34 96.1 °F 60.6 °F 29.73 in WNW 2.3 mph 2.3 mph 31 % 0.00 in
18:39 95.9 °F 60.4 °F 29.73 in NW 1.2 mph 1.2 mph 31 % 0.00 in
18:44 95.7 °F 60.2 °F 29.73 in NNW 2.3 mph 2.3 mph 31 % 0.00 in
18:49 95.6 °F 60.1 °F 29.73 in NW 1.2 mph   31 % 0.00 in
18:50 95.6 °F 61.0 °F 29.73 in Calm     32 % 0.00 in
18:55 94.9 °F 60.4 °F 29.73 in NW 1.2 mph 1.2 mph 32 % 0.00 in
19:00 94.2 °F 60.7 °F 29.73 in NNW 1.2 mph 1.2 mph 33 % 0.00 in
19:05 93.7 °F 61.1 °F 29.73 in NW 2.3 mph 2.3 mph 34 % 0.00 in
19:10 93.2 °F 60.7 °F 29.73 in WNW 1.2 mph 1.2 mph 34 % 0.00 in
19:15 92.9 °F 62.0 °F 29.73 in Calm     36 % 0.00 in
19:20 92.5 °F 61.7 °F 29.73 in Calm     36 % 0.00 in
19:25 92.2 °F 62.9 °F 29.73 in Calm     38 % 0.00 in
19:30 91.7 °F 62.5 °F 29.73 in Calm     38 % 0.00 in
19:35 91.4 °F 62.2 °F 29.73 in Calm     38 % 0.00 in
19:40 91.1 °F 62.0 °F 29.73 in Calm     38 % 0.00 in
19:45 90.7 °F 63.1 °F 29.74 in Calm     40 % 0.00 in
19:50 90.2 °F 63.3 °F 29.74 in Calm     41 % 0.00 in
19:55 89.7 °F 63.6 °F 29.74 in Calm     42 % 0.00 in
20:00 89.0 °F 64.3 °F 29.74 in Calm     44 % 0.00 in
20:05 88.4 °F 63.1 °F 29.74 in Calm     43 % 0.00 in
20:11 87.9 °F 64.5 °F 29.74 in Calm     46 % 0.00 in
20:16 87.4 °F 63.5 °F 29.74 in Calm     45 % 0.00 in
20:21 87.1 °F 65.0 °F 29.74 in Calm     48 % 0.00 in
20:22 86.9 °F 64.8 °F 29.74 in Calm     48 % 0.00 in
20:27 86.2 °F 64.8 °F 29.74 in Calm     49 % 0.00 in
20:31 85.8 °F 64.4 °F 29.74 in Calm     49 % 0.00 in
20:36 85.6 °F 63.7 °F 29.74 in Calm     48 % 0.00 in
20:41 85.3 °F 65.7 °F 29.74 in Calm     52 % 0.00 in
20:46 85.0 °F 64.3 °F 29.74 in Calm     50 % 0.00 in
20:51 84.7 °F 63.4 °F 29.75 in Calm     49 % 0.00 in
20:56 84.6 °F 64.5 °F 29.75 in Calm     51 % 0.00 in
21:01 84.5 °F 62.7 °F 29.75 in NNW 1.2 mph   48 % 0.00 in
21:06 84.7 °F 62.2 °F 29.75 in Calm   0.2 mph 47 % 0.00 in
21:11 84.9 °F 62.4 °F 29.75 in NW 1.2 mph 1.2 mph 47 % 0.00 in
21:16 85.1 °F 62.0 °F 29.76 in NW 1.2 mph 1.2 mph 46 % 0.00 in
21:21 85.0 °F 62.5 °F 29.76 in NW 1.2 mph 1.2 mph 47 % 0.00 in
21:26 84.8 °F 61.7 °F 29.76 in Calm     46 % 0.00 in
21:31 84.6 °F 62.7 °F 29.76 in NNW 1.2 mph   48 % 0.00 in
21:36 84.3 °F 62.5 °F 29.76 in NW 1.2 mph 1.2 mph 48 % 0.00 in
21:41 84.1 °F 62.3 °F 29.76 in NW 1.0 mph 1.0 mph 48 % 0.00 in
21:46 83.9 °F 62.7 °F 29.76 in NW 1.2 mph 1.2 mph 49 % 0.00 in
21:51 83.8 °F 62.6 °F 29.77 in NW 1.2 mph   49 % 0.00 in
21:56 83.6 °F 62.4 °F 29.77 in NNW 1.2 mph   49 % 0.00 in
22:01 83.6 °F 62.4 °F 29.77 in NW 1.2 mph 1.2 mph 49 % 0.00 in
22:07 83.6 °F 62.4 °F 29.77 in NW 1.0 mph 1.0 mph 49 % 0.00 in
22:12 83.6 °F 63.0 °F 29.77 in NW 1.2 mph   50 % 0.00 in
22:17 83.6 °F 62.4 °F 29.77 in NW 2.3 mph 2.3 mph 49 % 0.00 in
22:22 83.5 °F 62.9 °F 29.77 in NW 1.2 mph   50 % 0.00 in
22:27 83.2 °F 63.2 °F 29.77 in NW 1.2 mph 1.2 mph 51 % 0.00 in
22:32 82.8 °F 63.4 °F 29.77 in Calm     52 % 0.00 in
22:37 82.4 °F 63.5 °F 29.78 in Calm     53 % 0.00 in
22:42 82.0 °F 63.7 °F 29.78 in Calm     54 % 0.00 in
22:47 81.9 °F 63.6 °F 29.78 in Calm     54 % 0.00 in
22:57 81.7 °F 64.0 °F 29.78 in Calm     55 % 0.00 in
23:02 81.6 °F 63.3 °F 29.78 in North 1.2 mph 1.2 mph 54 % 0.00 in
23:07 81.4 °F 64.2 °F 29.78 in North 1.2 mph 1.2 mph 56 % 0.00 in
23:12 81.2 °F 63.5 °F 29.78 in NW 1.2 mph 1.2 mph 55 % 0.00 in
23:17 81.1 °F 63.4 °F 29.78 in NW 2.3 mph 2.3 mph 55 % 0.00 in
23:22 81.1 °F 63.4 °F 29.78 in NW 1.2 mph   55 % 0.00 in
23:27 81.2 °F 63.0 °F 29.78 in Calm     54 % 0.00 in
23:32 81.2 °F 63.0 °F 29.78 in Calm     54 % 0.00 in
23:37 81.0 °F 63.8 °F 29.78 in Calm     56 % 0.00 in
23:42 80.4 °F 63.8 °F 29.78 in Calm     57 % 0.00 in
23:47 80.1 °F 63.5 °F 29.78 in Calm     57 % 0.00 in
23:52 80.0 °F 63.4 °F 29.78 in Calm     57 % 0.00 in
23:57 79.5 °F 62.9 °F 29.78 in Calm     57 % 0.00 in
Park Place, Exeter, Tulare County, California, USA
Compliments of Weather Underground - 2.75 mb